STARLINK-1291, 45393

Orbit data source: Space-Track

STARLINK-1291, 45393 is a payload satellite owned by SpaceX/Seattle (US) in LEO that was launched on Wed, 18 Mar 2020 UTC via an FALCON 9 launch vehicle from the Air Force Eastern Test Range (AFETR). Payloads include a variety of satellites, spacecraft, and rockets equipped with specific instruments for various scientific and technological missions. These include communications satellites like Starlink; space stations such as the ISS; scientific satellites like the Hubble; Earth observation satellites from companies like Planet Labs, Umbra, and HawkEye 360; GPS; miniature CubeSats for education and research; and military/defense satellites.

Not visible in the next 10 days
STARLINK-1291 details
Identifier
45393, 2020-019AK
Orbit
LEO
Last TLE update4 hours ago
Origin
Flag of USSpaceX/Seattle (US)
ManufacturerSpaceX/Seattle
MissionPartially operational Commercial Communications
Bus & MotorSTARLINK, Unknown motor
Mass260 kg wet, ~248 kg dry
Launch date (UTC)
2020-03-18 (5 years ago)
Launch vehicle
FALCON 9
Launch site
Air Force Eastern Test Range (AFETR)
Object type
Payload
Rocket body
Debris
Shape & HBRBox + 1 Pan, 8.86 m
Radar Cross Section13.562 m², Large (>1 m²)

Expand to show TLE details & history

TLE from 4 hours ago
0 STARLINK-1291
1 45393U 20019AK  25037.91668981  .00427375  85243-4  10132-2 0  9994
2 45393  53.0421  83.0760 0007792  22.4096 113.3439 15.96150371270666
Epoch: 2025-02-06T22:00Z
Definitive object data (Epoch: 2025-02-06T22:00:01.999Z)
Latitude33.94248°
Longitude125.5471°
Altitude289.537 km
Speed7.737 km/s
True Right ascension15h 31m 22s
True Declination33° 46' 20"
Sunlit
Object was in daylight at TLE epoch
Visualization TLE readout
Latitude-46.12277°
Longitude-76.08916°
Altitude300.107 km
Speed7.728 km/s
Apparent Right ascension20h 30m 22s
Apparent Declination-76° 11' 05"
Sunlit
Object is in daylight
Visualization observer readout
Local Sidereal Time03:49:46
Azimuth197.964° SSW
Elevation-43.258°
Doppler factor1
Orbital elements
Apogee altitude290.586 km
Perigee altitude280.202 km
Semi-major axis6,663.531 km
Eccentricity0.0007792
Inclination53.0421°
RAAN83.076°
Arg. of periapsis22.4096°
True anomaly113.42585°
Mean anomaly113.3439°
Eccentric anomaly113.38488°
Mean motion3.99013 °/min
BSTAR0.0010132
Orbital period90.22 mins
Loading maneuver chart data...
Loading historical data...
Loading historical data...
Loading historical data...
Loading historical data...
Loading historical data...
Loading historical data...
Loading historical data...

STARLINK-1291 Visibility forecast

Observer location: undefined°, undefined

STARLINK-1291 is not visible in the next 10 days
Span
Click to sort rows by Start time (UTC) header in descending order
Start Az.
Max El. time (UTC)
Max El. Az.
Max El.
End time (UTC)
End Az.
|